| time (UTC) | temp F | wind direction | speed MPH | gust MPH | rain 1hr in | rain 24hr in | rain mn in | humidity % | barometer mb |
| 20260901063556 | 80 | 0 | 0.0 | 4.0 | 0.00 | 0.00 | 0.00 | 78 | 1015.4 |
| 20260901063059 | 80 | 165 | 0.0 | 5.0 | 0.00 | 0.00 | 0.00 | 77 | 1015.4 |
| 20260901062552 | 80 | 0 | 1.0 | 6.0 | 0.00 | 0.00 | 0.00 | 77 | 1015.3 |
| 20260901062054 | 80 | 178 | 2.0 | 7.0 | 0.00 | 0.00 | 0.00 | 77 | 1015.3 |
| 20260901061603 | 80 | 178 | 2.0 | 7.0 | 0.00 | 0.00 | 0.00 | 76 | 1015.3 |
| 20260901061054 | 81 | 142 | 1.0 | 5.0 | 0.00 | 0.00 | 0.00 | 76 | 1015.3 |
| 20260901060556 | 81 | 148 | 1.0 | 4.0 | 0.00 | 0.00 | 0.00 | 76 | 1015.2 |
| 20260901060108 | 81 | 0 | 1.0 | 4.0 | 0.00 | 0.00 | 0.00 | 75 | 1015.1 |
| 20260901055552 | 81 | 132 | 1.0 | 4.0 | 0.00 | 0.00 | 0.00 | 75 | 1015.2 |
| 20260901055054 | 81 | 141 | 0.0 | 6.0 | 0.00 | 0.00 | 0.00 | 75 | 1015.0 |
| 20260901054559 | 81 | 148 | 2.0 | 7.0 | 0.00 | 0.00 | 0.00 | 75 | 1015.0 |
| 20260901054055 | 81 | 167 | 1.0 | 7.0 | 0.00 | 0.00 | 0.00 | 74 | 1015.0 |
| 20260901053600 | 82 | 182 | 2.0 | 8.0 | 0.00 | 0.00 | 0.00 | 74 | 1014.9 |
| 20260901053122 | 82 | 142 | 1.0 | 8.0 | 0.00 | 0.00 | 0.00 | 73 | 1015.0 |
| 20260901052554 | 82 | 105 | 1.0 | 5.0 | 0.00 | 0.00 | 0.00 | 73 | 1014.9 |
| 20260901052055 | 82 | 138 | 1.0 | 4.0 | 0.00 | 0.00 | 0.00 | 72 | 1014.9 |
| 20260901051612 | 82 | 0 | 0.0 | 6.0 | 0.00 | 0.00 | 0.00 | 72 | 1015.0 |
| 20260901051054 | 83 | 121 | 1.0 | 6.0 | 0.00 | 0.00 | 0.00 | 71 | 1015.1 |
| 20260901050554 | 83 | 138 | 0.0 | 4.0 | 0.00 | 0.00 | 0.00 | 71 | 1015.0 |
| 20260901045556 | 83 | 0 | 1.0 | 8.0 | 0.00 | 0.00 | 0.00 | 71 | 1014.9 |
| 20260901045055 | 83 | 0 | 2.0 | 8.0 | 0.00 | 0.00 | 0.00 | 70 | 1015.0 |
| 20260901044607 | 84 | 0 | 1.0 | 6.0 | 0.00 | 0.00 | 0.00 | 70 | 1014.8 |
| 20260901044055 | 84 | 132 | 1.0 | 7.0 | 0.00 | 0.00 | 0.00 | 69 | 1014.7 |
| 20260901043550 | 84 | 0 | 2.0 | 9.0 | 0.00 | 0.00 | 0.00 | 69 | 1014.6 |
| 20260901043100 | 84 | 171 | 2.0 | 9.0 | 0.00 | 0.00 | 0.00 | 69 | 1014.4 |
| 20260901042554 | 84 | 163 | 2.0 | 9.0 | 0.00 | 0.00 | 0.00 | 69 | 1014.3 |
| 20260901042051 | 84 | 186 | 3.0 | 11.0 | 0.00 | 0.00 | 0.00 | 68 | 1014.5 |
| 20260901041559 | 84 | 144 | 3.0 | 11.0 | 0.00 | 0.00 | 0.00 | 68 | 1014.5 |
| 20260901041051 | 85 | 150 | 4.0 | 15.0 | 0.00 | 0.00 | 0.00 | 68 | 1014.4 |
| 20260901040551 | 85 | 148 | 4.0 | 15.0 | 0.00 | 0.00 | 0.00 | 67 | 1014.5 |
| 20260901040113 | 85 | 183 | 4.0 | 13.0 | 0.00 | 0.00 | 0.00 | 67 | 1014.6 |
| 20260901035556 | 85 | 166 | 5.0 | 15.0 | 0.00 | 0.00 | 0.00 | 66 | 1014.4 |
| 20260901035053 | 85 | 162 | 5.0 | 17.0 | 0.00 | 0.00 | 0.00 | 66 | 1014.5 |
| 20260901034610 | 86 | 223 | 4.0 | 17.0 | 0.00 | 0.00 | 0.00 | 65 | 1014.5 |
| 20260901034051 | 86 | 130 | 5.0 | 16.0 | 0.00 | 0.00 | 0.00 | 65 | 1014.5 |
| 20260901033551 | 86 | 140 | 4.0 | 16.0 | 0.00 | 0.00 | 0.00 | 64 | 1014.4 |
| 20260901033100 | 86 | 219 | 2.0 | 8.0 | 0.00 | 0.00 | 0.00 | 63 | 1014.3 |
| 20260901032552 | 86 | 159 | 2.0 | 15.0 | 0.00 | 0.00 | 0.00 | 62 | 1014.2 |
| 20260901032054 | 87 | 167 | 3.0 | 16.0 | 0.00 | 0.00 | 0.00 | 62 | 1014.2 |
| 20260901031557 | 87 | 129 | 4.0 | 16.0 | 0.00 | 0.00 | 0.00 | 61 | 1014.1 |
| 20260901031051 | 87 | 148 | 4.0 | 11.0 | 0.00 | 0.00 | 0.00 | 61 | 1013.9 |
| 20260901030552 | 87 | 194 | 3.0 | 9.0 | 0.00 | 0.00 | 0.00 | 61 | 1013.8 |
| 20260901025551 | 87 | 203 | 3.0 | 10.0 | 0.00 | 0.00 | 0.00 | 60 | 1013.6 |
| 20260901025052 | 88 | 113 | 4.0 | 10.0 | 0.00 | 0.00 | 0.00 | 59 | 1013.5 |
| 20260901024558 | 88 | 151 | 3.0 | 11.0 | 0.00 | 0.00 | 0.00 | 59 | 1013.4 |
| 20260901024053 | 88 | 0 | 2.0 | 11.0 | 0.00 | 0.00 | 0.00 | 59 | 1013.3 |
| 20260901023555 | 88 | 151 | 3.0 | 10.0 | 0.00 | 0.00 | 0.00 | 59 | 1013.2 |
| 20260901023107 | 88 | 126 | 2.0 | 12.0 | 0.00 | 0.00 | 0.00 | 59 | 1013.3 |
| 20260901022551 | 88 | 177 | 3.0 | 12.0 | 0.00 | 0.00 | 0.00 | 59 | 1013.2 |
| 20260901022055 | 88 | 255 | 1.0 | 12.0 | 0.00 | 0.00 | 0.00 | 59 | 1013.2 |
| 20260901021604 | 88 | 174 | 4.0 | 12.0 | 0.00 | 0.00 | 0.00 | 59 | 1013.1 |
| 20260901021052 | 89 | 128 | 3.0 | 9.0 | 0.00 | 0.00 | 0.00 | 58 | 1013.1 |
| 20260901020551 | 89 | 144 | 3.0 | 9.0 | 0.00 | 0.00 | 0.00 | 58 | 1013.0 |
| 20260901020053 | 89 | 134 | 4.0 | 10.0 | 0.00 | 0.00 | 0.00 | 58 | 1013.0 |
| 20260901015551 | 89 | 128 | 3.0 | 10.0 | 0.00 | 0.00 | 0.00 | 57 | 1013.1 |
| 20260901015051 | 89 | 189 | 3.0 | 10.0 | 0.00 | 0.00 | 0.00 | 57 | 1012.9 |
| 20260901014604 | 89 | 130 | 2.0 | 8.0 | 0.00 | 0.00 | 0.00 | 57 | 1012.9 |
| 20260901014052 | 90 | 126 | 3.0 | 10.0 | 0.00 | 0.00 | 0.00 | 57 | 1012.9 |
| 20260901013552 | 90 | 115 | 2.0 | 10.0 | 0.00 | 0.00 | 0.00 | 57 | 1012.8 |
| 20260901013100 | 90 | 112 | 3.0 | 13.0 | 0.00 | 0.00 | 0.00 | 56 | 1012.7 |
| 20260901012554 | 90 | 140 | 3.0 | 13.0 | 0.00 | 0.00 | 0.00 | 56 | 1012.7 |
| 20260901012051 | 91 | 165 | 2.0 | 10.0 | 0.00 | 0.00 | 0.00 | 55 | 1012.7 |
| 20260901011605 | 91 | 146 | 2.0 | 14.0 | 0.00 | 0.00 | 0.00 | 55 | 1012.6 |
| 20260901011052 | 91 | 128 | 4.0 | 14.0 | 0.00 | 0.00 | 0.00 | 54 | 1012.5 |
| 20260901010551 | 92 | 160 | 4.0 | 12.0 | 0.00 | 0.00 | 0.00 | 53 | 1012.5 |
| 20260901005551 | 93 | 136 | 5.0 | 12.0 | 0.00 | 0.00 | 0.00 | 50 | 1012.4 |
| 20260901005050 | 94 | 57 | 5.0 | 12.0 | 0.00 | 0.00 | 0.00 | 46 | 1012.4 |
| 20260901004608 | 95 | 87 | 1.0 | 6.0 | 0.00 | 0.00 | 0.00 | 45 | 1012.3 |
| 20260901004052 | 95 | 103 | 0.0 | 3.0 | 0.00 | 0.00 | 0.00 | 46 | 1012.2 |
| 20260901003552 | 95 | 0 | 0.0 | 3.0 | 0.00 | 0.00 | 0.00 | 45 | 1012.3 |
| 20260901003103 | 96 | 104 | 0.0 | 3.0 | 0.00 | 0.00 | 0.00 | 45 | 1012.2 |
| 20260901002552 | 96 | 0 | 0.0 | 6.0 | 0.00 | 0.00 | 0.00 | 44 | 1012.1 |
| 20260901002052 | 96 | 101 | 0.0 | 6.0 | 0.00 | 0.00 | 0.00 | 44 | 1012.2 |
| 20260901001556 | 96 | 101 | 2.0 | 5.0 | 0.00 | 0.00 | 0.00 | 44 | 1012.1 |
| 20260901001051 | 96 | 125 | 1.0 | 4.0 | 0.00 | 0.00 | 0.00 | 44 | 1012.2 |
| 20260901000551 | 96 | 117 | 1.0 | 4.0 | 0.00 | 0.00 | 0.00 | 44 | 1012.0 |
| 20260901000104 | 97 | 111 | 1.0 | 4.0 | 0.00 | 0.00 | 0.00 | 44 | 1012.0 |
| 20260831235551 | 97 | 98 | 1.0 | 4.0 | 0.00 | 0.00 | 0.00 | 44 | 1012.0 |
| 20260831235053 | 97 | 94 | 0.0 | 5.0 | 0.00 | 0.00 | 0.00 | 44 | 1012.0 |
| 20260831234600 | 97 | 94 | 2.0 | 5.0 | 0.00 | 0.00 | 0.00 | 44 | 1012.0 |
| 20260831234052 | 97 | 101 | 1.0 | 7.0 | 0.00 | 0.00 | 0.00 | 44 | 1012.0 |
| 20260831233552 | 97 | 97 | 1.0 | 8.0 | 0.00 | 0.00 | 0.00 | 43 | 1012.0 |
| 20260831233101 | 97 | 101 | 2.0 | 8.0 | 0.00 | 0.00 | 0.00 | 42 | 1012.1 |
| 20260831232551 | 97 | 150 | 3.0 | 9.0 | 0.00 | 0.00 | 0.00 | 43 | 1012.0 |
| 20260831232051 | 97 | 109 | 4.0 | 9.0 | 0.00 | 0.00 | 0.00 | 42 | 1012.0 |
| 20260831231602 | 97 | 108 | 2.0 | 13.0 | 0.00 | 0.00 | 0.00 | 43 | 1012.0 |
| 20260831231054 | 97 | 82 | 3.0 | 13.0 | 0.00 | 0.00 | 0.00 | 43 | 1012.1 |
| 20260831230552 | 97 | 135 | 2.0 | 8.0 | 0.00 | 0.00 | 0.00 | 43 | 1012.0 |
| 20260831230114 | 97 | 90 | 2.0 | 6.0 | 0.00 | 0.00 | 0.00 | 43 | 1012.1 |
| 20260831225557 | 98 | 163 | 1.0 | 9.0 | 0.00 | 0.00 | 0.00 | 43 | 1012.1 |
| 20260831225051 | 98 | 63 | 2.0 | 9.0 | 0.00 | 0.00 | 0.00 | 43 | 1012.1 |
| 20260831224605 | 98 | 80 | 4.0 | 9.0 | 0.00 | 0.00 | 0.00 | 42 | 1012.1 |
| 20260831224051 | 98 | 91 | 1.0 | 9.0 | 0.00 | 0.00 | 0.00 | 42 | 1012.1 |
| 20260831223553 | 99 | 80 | 3.0 | 9.0 | 0.00 | 0.00 | 0.00 | 42 | 1012.1 |
| 20260831223110 | 99 | 46 | 2.0 | 8.0 | 0.00 | 0.00 | 0.00 | 42 | 1012.2 |
| 20260831222553 | 99 | 89 | 2.0 | 10.0 | 0.00 | 0.00 | 0.00 | 42 | 1012.3 |
| 20260831222052 | 99 | 62 | 3.0 | 10.0 | 0.00 | 0.00 | 0.00 | 42 | 1012.3 |
| 20260831221603 | 99 | 159 | 3.0 | 10.0 | 0.00 | 0.00 | 0.00 | 42 | 1012.4 |
| 20260831221052 | 99 | 99 | 3.0 | 11.0 | 0.00 | 0.00 | 0.00 | 42 | 1012.3 |
| 20260831220552 | 99 | 0 | 3.0 | 11.0 | 0.00 | 0.00 | 0.00 | 42 | 1012.4 |
| 20260831220114 | 99 | 115 | 3.0 | 8.0 | 0.00 | 0.00 | 0.00 | 42 | 1012.4 |
| 20260831215554 | 99 | 104 | 2.0 | 8.0 | 0.00 | 0.00 | 0.00 | 43 | 1012.6 |
| 20260831215051 | 99 | 134 | 3.0 | 8.0 | 0.00 | 0.00 | 0.00 | 42 | 1012.7 |
| 20260831214600 | 99 | 0 | 2.0 | 6.0 | 0.00 | 0.00 | 0.00 | 43 | 1012.8 |
| 20260831214051 | 99 | 152 | 2.0 | 9.0 | 0.00 | 0.00 | 0.00 | 42 | 1012.8 |
| 20260831213551 | 99 | 192 | 3.0 | 9.0 | 0.00 | 0.00 | 0.00 | 42 | 1012.9 |
| 20260831213128 | 99 | 184 | 3.0 | 13.0 | 0.00 | 0.00 | 0.00 | 43 | 1013.0 |
| 20260831212551 | 99 | 115 | 3.0 | 13.0 | 0.00 | 0.00 | 0.00 | 43 | 1012.9 |
| 20260831212054 | 98 | 101 | 4.0 | 13.0 | 0.00 | 0.00 | 0.00 | 44 | 1013.0 |
| 20260831211611 | 98 | 148 | 1.0 | 7.0 | 0.00 | 0.00 | 0.00 | 46 | 1013.1 |
| 20260831211051 | 97 | 0 | 2.0 | 7.0 | 0.00 | 0.00 | 0.00 | 45 | 1013.2 |
| 20260831210551 | 97 | 124 | 1.0 | 6.0 | 0.00 | 0.00 | 0.00 | 46 | 1013.2 |
| 20260831205552 | 98 | 163 | 2.0 | 10.0 | 0.00 | 0.00 | 0.00 | 45 | 1013.3 |
| 20260831205051 | 99 | 151 | 1.0 | 10.0 | 0.00 | 0.00 | 0.00 | 44 | 1013.4 |
| 20260831204605 | 99 | 0 | 3.0 | 9.0 | 0.00 | 0.00 | 0.00 | 44 | 1013.4 |
| 20260831204051 | 98 | 113 | 3.0 | 8.0 | 0.00 | 0.00 | 0.00 | 45 | 1013.6 |
| 20260831203553 | 98 | 200 | 2.0 | 10.0 | 0.00 | 0.00 | 0.00 | 45 | 1013.6 |
| 20260831203115 | 98 | 142 | 3.0 | 10.0 | 0.00 | 0.00 | 0.00 | 46 | 1013.8 |
| 20260831202558 | 97 | 130 | 2.0 | 8.0 | 0.00 | 0.00 | 0.00 | 46 | 1013.9 |
| 20260831202052 | 96 | 156 | 1.0 | 8.0 | 0.00 | 0.00 | 0.00 | 48 | 1014.0 |
| 20260831201559 | 96 | 117 | 2.0 | 10.0 | 0.00 | 0.00 | 0.00 | 48 | 1014.1 |
| 20260831201051 | 97 | 119 | 2.0 | 10.0 | 0.00 | 0.00 | 0.00 | 48 | 1014.2 |
| 20260831200551 | 98 | 93 | 3.0 | 7.0 | 0.00 | 0.00 | 0.00 | 46 | 1014.3 |
| 20260831200101 | 98 | 100 | 1.0 | 12.0 | 0.00 | 0.00 | 0.00 | 46 | 1014.3 |
| 20260831195551 | 98 | 123 | 2.0 | 12.0 | 0.00 | 0.00 | 0.00 | 45 | 1014.3 |
| 20260831195051 | 98 | 105 | 4.0 | 12.0 | 0.00 | 0.00 | 0.00 | 46 | 1014.5 |
| 20260831194605 | 97 | 159 | 3.0 | 8.0 | 0.00 | 0.00 | 0.00 | 47 | 1014.5 |
| 20260831194051 | 98 | 120 | 4.0 | 8.0 | 0.00 | 0.00 | 0.00 | 46 | 1014.6 |
| 20260831193553 | 98 | 111 | 2.0 | 9.0 | 0.00 | 0.00 | 0.00 | 48 | 1014.7 |
| 20260831193058 | 97 | 153 | 1.0 | 9.0 | 0.00 | 0.00 | 0.00 | 46 | 1014.7 |
| 20260831192552 | 97 | 65 | 2.0 | 7.0 | 0.00 | 0.00 | 0.00 | 46 | 1014.8 |
| 20260831192051 | 97 | 101 | 2.0 | 7.0 | 0.00 | 0.00 | 0.00 | 48 | 1014.9 |
| 20260831191605 | 97 | 104 | 1.0 | 9.0 | 0.00 | 0.00 | 0.00 | 48 | 1015.0 |
| 20260831191055 | 97 | 172 | 3.0 | 10.0 | 0.00 | 0.00 | 0.00 | 48 | 1015.1 |
| 20260831190553 | 96 | 221 | 3.0 | 10.0 | 0.00 | 0.00 | 0.00 | 50 | 1015.1 |
| 20260831190111 | 96 | 78 | 2.0 | 9.0 | 0.00 | 0.00 | 0.00 | 50 | 1015.2 |
| 20260831185550 | 95 | 202 | 4.0 | 9.0 | 0.00 | 0.00 | 0.00 | 50 | 1015.3 |
| 20260831185049 | 95 | 179 | 3.0 | 9.0 | 0.00 | 0.00 | 0.00 | 50 | 1015.3 |
| 20260831184606 | 95 | 184 | 2.0 | 7.0 | 0.00 | 0.00 | 0.00 | 51 | 1015.3 |
| 20260831184053 | 95 | 223 | 2.0 | 8.0 | 0.00 | 0.00 | 0.00 | 50 | 1015.4 |
| 20260831183554 | 95 | 0 | 3.0 | 8.0 | 0.00 | 0.00 | 0.00 | 50 | 1015.3 |
| 20260831183104 | 95 | 165 | 2.0 | 8.0 | 0.00 | 0.00 | 0.00 | 51 | 1015.4 |
| 20260831182554 | 94 | 184 | 3.0 | 10.0 | 0.00 | 0.00 | 0.00 | 52 | 1015.5 |
| 20260831182053 | 94 | 69 | 3.0 | 10.0 | 0.00 | 0.00 | 0.00 | 52 | 1015.4 |
| 20260831181606 | 94 | 151 | 2.0 | 9.0 | 0.00 | 0.00 | 0.00 | 53 | 1015.5 |
| 20260831181056 | 94 | 200 | 2.0 | 11.0 | 0.00 | 0.00 | 0.00 | 53 | 1015.6 |
| 20260831180553 | 94 | 214 | 5.0 | 11.0 | 0.00 | 0.00 | 0.00 | 52 | 1015.6 |
| 20260831180110 | 94 | 193 | 1.0 | 10.0 | 0.00 | 0.00 | 0.00 | 53 | 1015.6 |
| 20260831175553 | 94 | 144 | 3.0 | 10.0 | 0.00 | 0.00 | 0.00 | 54 | 1015.7 |
| 20260831175051 | 94 | 178 | 2.0 | 10.0 | 0.00 | 0.00 | 0.00 | 54 | 1015.7 |
| 20260831174556 | 93 | 209 | 4.0 | 10.0 | 0.00 | 0.00 | 0.00 | 53 | 1015.8 |
| 20260831174057 | 93 | 97 | 3.0 | 10.0 | 0.00 | 0.00 | 0.00 | 54 | 1015.9 |
| 20260831173554 | 93 | 65 | 2.0 | 12.0 | 0.00 | 0.00 | 0.00 | 55 | 1015.9 |
| 20260831173105 | 93 | 88 | 4.0 | 12.0 | 0.00 | 0.00 | 0.00 | 55 | 1015.9 |
| 20260831172554 | 92 | 115 | 1.0 | 11.0 | 0.00 | 0.00 | 0.00 | 57 | 1016.0 |
| 20260831172053 | 92 | 77 | 2.0 | 11.0 | 0.00 | 0.00 | 0.00 | 58 | 1016.1 |
| 20260831171604 | 91 | 211 | 1.0 | 10.0 | 0.00 | 0.00 | 0.00 | 59 | 1016.1 |
| 20260831171053 | 91 | 0 | 3.0 | 10.0 | 0.00 | 0.00 | 0.00 | 59 | 1016.1 |
| 20260831170550 | 91 | 175 | 2.0 | 9.0 | 0.00 | 0.00 | 0.00 | 61 | 1016.2 |
| 20260831165550 | 90 | 0 | 3.0 | 7.0 | 0.00 | 0.00 | 0.00 | 62 | 1016.2 |
| 20260831165049 | 90 | 190 | 2.0 | 7.0 | 0.00 | 0.00 | 0.00 | 62 | 1016.3 |
| 20260831164615 | 90 | 132 | 3.0 | 10.0 | 0.00 | 0.00 | 0.00 | 63 | 1016.3 |
| 20260831164053 | 89 | 161 | 3.0 | 10.0 | 0.00 | 0.00 | 0.00 | 64 | 1016.3 |
| 20260831163553 | 89 | 0 | 2.0 | 10.0 | 0.00 | 0.00 | 0.00 | 65 | 1016.3 |
| 20260831163102 | 88 | 149 | 4.0 | 10.0 | 0.00 | 0.00 | 0.00 | 66 | 1016.2 |
| 20260831162551 | 88 | 173 | 3.0 | 6.0 | 0.00 | 0.00 | 0.00 | 68 | 1016.2 |
| 20260831162053 | 88 | 174 | 3.0 | 8.0 | 0.00 | 0.00 | 0.00 | 67 | 1016.2 |
| 20260831161607 | 88 | 136 | 2.0 | 10.0 | 0.00 | 0.00 | 0.00 | 69 | 1016.3 |
| 20260831161057 | 87 | 132 | 3.0 | 10.0 | 0.00 | 0.00 | 0.00 | 70 | 1016.3 |
| 20260831160557 | 87 | 0 | 3.0 | 11.0 | 0.00 | 0.00 | 0.00 | 71 | 1016.3 |
| 20260831155555 | 86 | 166 | 2.0 | 10.0 | 0.00 | 0.00 | 0.00 | 72 | 1016.3 |
| 20260831155054 | 86 | 158 | 3.0 | 9.0 | 0.00 | 0.00 | 0.00 | 72 | 1016.2 |
| 20260831154635 | 86 | 165 | 3.0 | 9.0 | 0.00 | 0.00 | 0.00 | 73 | 1016.3 |
| 20260831154052 | 86 | 230 | 2.0 | 10.0 | 0.00 | 0.00 | 0.00 | 74 | 1016.3 |
| 20260831153555 | 85 | 130 | 1.0 | 10.0 | 0.00 | 0.00 | 0.00 | 76 | 1016.2 |
| 20260831153106 | 84 | 150 | 3.0 | 10.0 | 0.00 | 0.00 | 0.00 | 77 | 1016.2 |
| 20260831152552 | 84 | 156 | 3.0 | 9.0 | 0.00 | 0.00 | 0.00 | 78 | 1016.1 |
| 20260831152056 | 83 | 163 | 3.0 | 8.0 | 0.00 | 0.00 | 0.00 | 78 | 1016.1 |
| 20260831151612 | 83 | 170 | 3.0 | 10.0 | 0.00 | 0.00 | 0.00 | 79 | 1016.3 |
| 20260831151052 | 83 | 111 | 3.0 | 10.0 | 0.00 | 0.00 | 0.00 | 80 | 1016.3 |
| 20260831150552 | 82 | 117 | 2.0 | 7.0 | 0.00 | 0.00 | 0.00 | 82 | 1016.3 |
| 20260831150107 | 82 | 194 | 3.0 | 10.0 | 0.00 | 0.00 | 0.00 | 83 | 1016.1 |
| 20260831145554 | 81 | 204 | 5.0 | 10.0 | 0.00 | 0.00 | 0.00 | 83 | 1016.2 |
| 20260831145051 | 81 | 200 | 3.0 | 8.0 | 0.00 | 0.00 | 0.00 | 85 | 1016.1 |
| 20260831144624 | 81 | 126 | 2.0 | 6.0 | 0.00 | 0.00 | 0.00 | 87 | 1016.1 |
| 20260831144052 | 80 | 123 | 0.0 | 6.0 | 0.00 | 0.00 | 0.00 | 88 | 1016.1 |
| 20260831143552 | 80 | 123 | 2.0 | 7.0 | 0.00 | 0.00 | 0.00 | 89 | 1016.1 |
| 20260831143119 | 80 | 171 | 2.0 | 7.0 | 0.00 | 0.00 | 0.00 | 90 | 1016.1 |
| 20260831142552 | 79 | 131 | 1.0 | 5.0 | 0.00 | 0.00 | 0.00 | 91 | 1016.1 |
| 20260831142053 | 79 | 126 | 1.0 | 7.0 | 0.00 | 0.00 | 0.00 | 91 | 1016.0 |
| 20260831141619 | 79 | 215 | 3.0 | 7.0 | 0.00 | 0.00 | 0.00 | 91 | 1016.1 |
| 20260831141055 | 79 | 131 | 1.0 | 5.0 | 0.00 | 0.00 | 0.00 | 92 | 1016.1 |
| 20260831140552 | 79 | 0 | 0.0 | 4.0 | 0.00 | 0.00 | 0.00 | 92 | 1016.1 |
| 20260831140059 | 78 | 0 | 0.0 | 4.0 | 0.00 | 0.00 | 0.00 | 92 | 1016.0 |
| 20260831135552 | 78 | 146 | 0.0 | 5.0 | 0.00 | 0.00 | 0.00 | 93 | 1016.0 |
| 20260831135053 | 78 | 144 | 1.0 | 5.0 | 0.00 | 0.00 | 0.00 | 93 | 1015.9 |
| 20260831134605 | 78 | 142 | 2.0 | 5.0 | 0.00 | 0.00 | 0.00 | 92 | 1015.8 |
| 20260831134052 | 78 | 138 | 0.0 | 4.0 | 0.00 | 0.00 | 0.00 | 93 | 1015.8 |
| 20260831133552 | 78 | 0 | 1.0 | 7.0 | 0.00 | 0.00 | 0.00 | 93 | 1015.7 |
| 20260831133107 | 78 | 0 | 0.0 | 7.0 | 0.00 | 0.00 | 0.00 | 93 | 1015.6 |
| 20260831132551 | 78 | 149 | 1.0 | 4.0 | 0.00 | 0.00 | 0.00 | 93 | 1015.7 |
| 20260831132053 | 77 | 142 | 0.0 | 2.0 | 0.00 | 0.00 | 0.00 | 93 | 1015.7 |
| 20260831131601 | 77 | 0 | 0.0 | 2.0 | 0.00 | 0.00 | 0.00 | 93 | 1015.6 |
| 20260831131051 | 77 | 0 | 0.0 | 4.0 | 0.00 | 0.00 | 0.00 | 93 | 1015.6 |
| 20260831130551 | 77 | 0 | 0.0 | 4.0 | 0.00 | 0.00 | 0.00 | 93 | 1015.5 |
| 20260831130110 | 77 | 142 | 0.0 | 4.0 | 0.00 | 0.00 | 0.00 | 93 | 1015.5 |
| 20260831125551 | 77 | 0 | 0.0 | 0.0 | 0.00 | 0.00 | 0.00 | 93 | 1015.4 |
| 20260831125052 | 77 | 0 | 0.0 | 1.0 | 0.00 | 0.00 | 0.00 | 92 | 1015.3 |
| 20260831124601 | 77 | 0 | 0.0 | 2.0 | 0.00 | 0.00 | 0.00 | 92 | 1015.4 |
| 20260831124053 | 76 | 0 | 0.0 | 2.0 | 0.00 | 0.00 | 0.00 | 92 | 1015.3 |
| 20260831123552 | 76 | 0 | 0.0 | 2.0 | 0.00 | 0.00 | 0.00 | 92 | 1015.2 |
| 20260831123059 | 76 | 0 | 0.0 | 2.0 | 0.00 | 0.00 | 0.00 | 92 | 1015.2 |
| 20260831122556 | 76 | 0 | 0.0 | 3.0 | 0.00 | 0.00 | 0.00 | 92 | 1015.1 |
| 20260831122053 | 76 | 0 | 0.0 | 4.0 | 0.00 | 0.00 | 0.00 | 92 | 1015.0 |
| 20260831121604 | 76 | 163 | 0.0 | 4.0 | 0.00 | 0.00 | 0.00 | 92 | 1015.0 |
| 20260831121054 | 76 | 163 | 0.0 | 4.0 | 0.00 | 0.00 | 0.00 | 92 | 1015.1 |
| 20260831120554 | 76 | 0 | 0.0 | 0.0 | 0.00 | 0.00 | 0.00 | 92 | 1015.1 |
| 20260831120110 | 76 | 0 | 0.0 | 0.0 | 0.00 | 0.00 | 0.00 | 92 | 1014.9 |
| 20260831115551 | 76 | 0 | 0.0 | 0.0 | 0.00 | 0.00 | 0.00 | 92 | 1014.9 |
| 20260831115053 | 76 | 0 | 0.0 | 0.0 | 0.00 | 0.00 | 0.00 | 92 | 1015.0 |
| 20260831114606 | 76 | 0 | 0.0 | 0.0 | 0.00 | 0.00 | 0.00 | 92 | 1015.0 |
| 20260831114052 | 76 | 0 | 0.0 | 0.0 | 0.00 | 0.00 | 0.00 | 91 | 1014.9 |
| 20260831113551 | 77 | 0 | 0.0 | 0.0 | 0.00 | 0.00 | 0.00 | 91 | 1014.9 |
| 20260831113101 | 77 | 0 | 0.0 | 0.0 | 0.00 | 0.00 | 0.00 | 91 | 1014.9 |
| 20260831112554 | 77 | 0 | 0.0 | 0.0 | 0.00 | 0.00 | 0.00 | 91 | 1014.8 |
| 20260831112051 | 77 | 0 | 0.0 | 2.0 | 0.00 | 0.00 | 0.00 | 91 | 1014.8 |
| 20260831111611 | 77 | 0 | 0.0 | 4.0 | 0.00 | 0.00 | 0.00 | 91 | 1014.7 |
| 20260831111051 | 77 | 0 | 0.0 | 4.0 | 0.00 | 0.00 | 0.00 | 91 | 1014.8 |
| 20260831110554 | 77 | 163 | 0.0 | 4.0 | 0.00 | 0.00 | 0.00 | 91 | 1014.9 |
| 20260831110106 | 77 | 0 | 0.0 | 4.0 | 0.00 | 0.00 | 0.00 | 91 | 1015.0 |
| 20260831105553 | 77 | 163 | 1.0 | 2.0 | 0.00 | 0.00 | 0.00 | 91 | 1014.9 |
| 20260831105053 | 77 | 0 | 0.0 | 4.0 | 0.00 | 0.00 | 0.00 | 91 | 1014.9 |
| 20260831104602 | 77 | 0 | 1.0 | 4.0 | 0.00 | 0.00 | 0.00 | 91 | 1014.8 |
| 20260831104052 | 77 | 163 | 1.0 | 4.0 | 0.00 | 0.00 | 0.00 | 91 | 1014.9 |
| 20260831103553 | 77 | 163 | 0.0 | 5.0 | 0.00 | 0.00 | 0.00 | 91 | 1014.7 |
| 20260831103101 | 77 | 163 | 0.0 | 6.0 | 0.00 | 0.00 | 0.00 | 90 | 1014.8 |
| 20260831102554 | 77 | 0 | 1.0 | 6.0 | 0.00 | 0.00 | 0.00 | 90 | 1014.8 |
| 20260831102051 | 77 | 161 | 1.0 | 6.0 | 0.00 | 0.00 | 0.00 | 90 | 1014.9 |
| 20260831101601 | 77 | 0 | 0.0 | 0.0 | 0.00 | 0.00 | 0.00 | 90 | 1014.9 |
| 20260831101052 | 77 | 0 | 0.0 | 0.0 | 0.00 | 0.00 | 0.00 | 90 | 1015.0 |
| 20260831100551 | 77 | 0 | 0.0 | 0.0 | 0.00 | 0.00 | 0.00 | 90 | 1015.0 |
| 20260831100106 | 77 | 0 | 0.0 | 0.0 | 0.00 | 0.00 | 0.00 | 90 | 1014.9 |
| 20260831095551 | 77 | 0 | 0.0 | 3.0 | 0.00 | 0.00 | 0.00 | 90 | 1014.9 |
| 20260831095053 | 77 | 0 | 0.0 | 3.0 | 0.00 | 0.00 | 0.00 | 89 | 1015.0 |
| 20260831094608 | 77 | 157 | 0.0 | 3.0 | 0.00 | 0.00 | 0.00 | 89 | 1015.0 |
| 20260831094052 | 78 | 0 | 0.0 | 1.0 | 0.00 | 0.00 | 0.00 | 89 | 1015.0 |
| 20260831093553 | 78 | 0 | 0.0 | 2.0 | 0.00 | 0.00 | 0.00 | 89 | 1015.0 |
| 20260831093104 | 78 | 0 | 0.0 | 3.0 | 0.00 | 0.00 | 0.00 | 89 | 1014.9 |
| 20260831092552 | 78 | 157 | 0.0 | 3.0 | 0.00 | 0.00 | 0.00 | 89 | 1015.0 |
| 20260831092051 | 78 | 157 | 0.0 | 5.0 | 0.00 | 0.00 | 0.00 | 89 | 1015.0 |
| 20260831091603 | 78 | 0 | 0.0 | 5.0 | 0.00 | 0.00 | 0.00 | 89 | 1014.9 |
| 20260831091051 | 78 | 156 | 1.0 | 5.0 | 0.00 | 0.00 | 0.00 | 89 | 1015.0 |
| 20260831090551 | 78 | 155 | 0.0 | 5.0 | 0.00 | 0.00 | 0.00 | 89 | 1014.9 |
| 20260831090104 | 78 | 154 | 1.0 | 4.0 | 0.00 | 0.00 | 0.00 | 88 | 1015.0 |
| 20260831085552 | 78 | 0 | 0.0 | 5.0 | 0.00 | 0.00 | 0.00 | 88 | 1015.0 |
| 20260831085052 | 78 | 0 | 0.0 | 5.0 | 0.00 | 0.00 | 0.00 | 88 | 1015.0 |
| 20260831084611 | 78 | 0 | 0.0 | 6.0 | 0.00 | 0.00 | 0.00 | 88 | 1014.9 |
| 20260831084051 | 78 | 158 | 0.0 | 6.0 | 0.00 | 0.00 | 0.00 | 88 | 1014.9 |
| 20260831083552 | 78 | 157 | 0.0 | 5.0 | 0.00 | 0.00 | 0.00 | 88 | 1014.9 |
| 20260831083111 | 78 | 151 | 1.0 | 7.0 | 0.00 | 0.00 | 0.00 | 88 | 1015.0 |
| 20260831082551 | 78 | 151 | 1.0 | 7.0 | 0.00 | 0.00 | 0.00 | 88 | 1015.1 |
| 20260831082051 | 78 | 147 | 1.0 | 7.0 | 0.00 | 0.00 | 0.00 | 88 | 1015.0 |
| 20260831081608 | 78 | 138 | 1.0 | 7.0 | 0.00 | 0.00 | 0.00 | 88 | 1015.0 |
| 20260831081053 | 78 | 179 | 2.0 | 7.0 | 0.00 | 0.00 | 0.00 | 88 | 1015.1 |
| 20260831080551 | 78 | 159 | 1.0 | 7.0 | 0.00 | 0.00 | 0.00 | 87 | 1015.1 |
| 20260831080106 | 78 | 194 | 2.0 | 7.0 | 0.00 | 0.00 | 0.00 | 87 | 1015.1 |
| 20260831075551 | 78 | 174 | 1.0 | 7.0 | 0.00 | 0.00 | 0.00 | 87 | 1015.2 |
| 20260831075052 | 78 | 182 | 2.0 | 7.0 | 0.00 | 0.00 | 0.00 | 87 | 1015.2 |
| 20260831074616 | 78 | 188 | 2.0 | 7.0 | 0.00 | 0.00 | 0.00 | 87 | 1015.2 |
| 20260831074053 | 78 | 152 | 1.0 | 5.0 | 0.00 | 0.00 | 0.00 | 86 | 1015.1 |
| 20260831073550 | 78 | 147 | 0.0 | 4.0 | 0.00 | 0.00 | 0.00 | 86 | 1015.1 |
| 20260831073100 | 78 | 0 | 0.0 | 5.0 | 0.00 | 0.00 | 0.00 | 86 | 1015.0 |
| 20260831072551 | 78 | 127 | 0.0 | 5.0 | 0.00 | 0.00 | 0.00 | 86 | 1015.1 |
| 20260831072051 | 79 | 161 | 1.0 | 5.0 | 0.00 | 0.00 | 0.00 | 86 | 1015.0 |
| 20260831071603 | 79 | 165 | 0.0 | 6.0 | 0.00 | 0.00 | 0.00 | 85 | 1015.1 |
| 20260831071051 | 79 | 170 | 0.0 | 6.0 | 0.00 | 0.00 | 0.00 | 85 | 1015.1 |
| 20260831070553 | 79 | 168 | 1.0 | 6.0 | 0.00 | 0.00 | 0.00 | 85 | 1015.1 |
| 20260831070106 | 79 | 165 | 1.0 | 8.0 | 0.00 | 0.00 | 0.00 | 84 | 1015.2 |
| 20260831065552 | 79 | 163 | 2.0 | 8.0 | 0.00 | 0.00 | 0.00 | 84 | 1015.1 |
| 20260831065139 | 79 | 167 | 2.0 | 8.0 | 0.00 | 0.00 | 0.00 | 83 | 1015.2 |
| 20260831064607 | 79 | 146 | 2.0 | 8.0 | 0.00 | 0.00 | 0.00 | 83 | 1015.3 |
| 20260831064050 | 79 | 0 | 1.0 | 8.0 | 0.00 | 0.00 | 0.00 | 82 | 1015.2 |